Retour au catalogue

ONEWEB-0025

ActifCommunicationsPO
NORAD 45138·PAYLOAD·🇬🇧 United Kingdom

Lancé Feb 6, 2020 depuis Baikonur Cosmodrome

Loading…

Prochains Passages (prochaines 24 heures)

TLE

FraisSource: CelesTrak SupGP

Époque: Sep 14, 2026, 13:23 UTC

1 45138C 20008H   26257.55815232 -.00002518  00000+0 -72214-2 0  2576
2 45138  87.8925  18.4607 0001371 112.5953 358.0086 13.10379106    18

Suivez ONEWEB-0025 en temps réel avec AllMySat

Download on the App Store